Погода в Новом Орлеане

США     29°56′53″N   90°04′13″W
темп.,
°C
ветер,
м/с
пор.,
м/с
влажн.,
%
обл.,
%
осадки,
мм/ч
давл.,
гПа
погр.,
м
27 января, ср
ср2700:00+20ю4109390 1.6 1012443
03:00+20ююз4119695 0.0 1012467
06:00+20юз4109693 0.2 1014427
09:00+21з499193 2.6 1017574
12:00+19сз798183 2.8 1019526
15:00+16ссз7117794 0.0 1019729
18:00+16ссз7116497 0.0 1023858
21:00+13с8126899 0.0 1026914
28 января, чт
чт2800:00+11ссв7117082 0.0 1028777
03:00+8с7117115 0.0 1029679
06:00+6ссв6107413 0.0 1032645
09:00+7ссв69637 0.0 1033613
12:00+11ссв46483 0.0 1032660
15:00+13ссв45430 0.0 1030792
18:00+11ссв47540 0.0 1031482
21:00+10св576079 0.0 1032431
29 января, пт
пт2900:00+8всв586489 0.0 1030449
03:00+7всв366831 0.0 1029314
06:00+6всв467216 0.0 1029231
09:00+9всв46670 0.0 1029398
12:00+13всв33570 0.0 1028669
15:00+14в44550 0.0 1025597
18:00+11вюв36710 0.0 1024276
21:00+11вюв47790 0.0 1024249
30 января, сб
сб3000:00+11вюв378122 0.0 1022240
03:00+12юв3783100 0.0 1019190
06:00+12вюв358797 0.0 1019120
09:00+16юв31082100 0.0 1018377
12:00+19ю51069100 0.1 10171084
15:00+20ююз51069100 0.1 10151078
18:00+19ююз51177100 0.2 1015678
21:00+18ююз51281100 0.1 1014625
31 января, вс
вс3100:00+19ююз71478100 0.1 1014671
03:00+19юз61386100 0.3 1013678
06:00+19зюз5119299 1.8 1013609
09:00+18зсз597684 0.1 1015525
12:00+18зсз7105652 0.1 1015597
15:00+18зсз711500 0.0 1015815
18:00+16сз710620 0.0 1017762
21:00+12ссз710710 0.0 1020969